Tracking 19706 objects as of 16-Jun-2019
HD Live streaming from Space Station
objects crossing your sky now

COSMOS 2528

Track COSMOS 2528 now!
10-day predictions


NORAD ID: 43657
Int'l Code: 2018-082A
Perigee: 908.1 km
Apogee: 916.8 km
Inclination: 67.1 °
Period: 103.1 minutes
Semi major axis: 7283 km
RCS: Unknown
Launch date: October 25, 2018
Source: Commonwealth of Independent States (former USSR) (CIS)
Launch site: PLESETSK MISSILE AND SPACE COMPLEX (PKMTR)
aabbcc
Your satellite tracking list
Your tracking list is empty




NASA's NSSDC Master Catalog

Two Line Element Set (TLE):
1 43657U 18082A   19167.09965732 -.00000075  00000-0  00000+0 0  9991
2 43657  67.1483 173.9707 0005932 265.3292  94.7122 13.96678733 32719
Source of the keplerian elements: AFSPC